www.pogodaiklimat.ru

Архив погоды в Сантьяго (Чили)

Время
(UTC), дата
13 10.07
14 10.07
15 10.07
16 10.07
17 10.07
18 10.07
19 10.07
20 10.07
21 10.07
22 10.07
23 10.07
00 11.07
01 11.07
02 11.07
03 11.07
04 11.07
05 11.07
06 11.07
07 11.07
08 11.07
09 11.07
10 11.07
11 11.07
12 11.07
13 11.07
14 11.07
15 11.07
16 11.07
17 11.07
18 11.07
19 11.07
20 11.07
21 11.07
22 11.07
23 11.07
00 12.07
01 12.07
02 12.07
03 12.07
04 12.07
05 12.07
06 12.07
07 12.07
08 12.07
09 12.07
10 12.07
11 12.07
12 12.07
13 12.07
14 12.07
15 12.07
16 12.07
17 12.07
18 12.07
19 12.07
20 12.07
21 12.07
22 12.07
23 12.07
00 13.07
01 13.07
02 13.07
03 13.07
04 13.07
05 13.07
06 13.07
07 13.07
08 13.07
09 13.07
10 13.07
11 13.07
12 13.07
13 13.07
14 13.07
15 13.07
16 13.07
17 13.07
18 13.07
19 13.07
20 13.07
21 13.07
22 13.07
23 13.07
00 14.07
01 14.07
02 14.07
03 14.07
04 14.07
05 14.07
06 14.07
07 14.07
08 14.07
09 14.07
10 14.07
11 14.07
12 14.07
13 14.07
14 14.07
15 14.07
16 14.07
17 14.07
18 14.07
19 14.07
20 14.07
21 14.07
22 14.07
23 14.07
00 15.07
01 15.07
02 15.07
03 15.07
04 15.07
05 15.07
06 15.07
07 15.07
08 15.07
09 15.07
10 15.07
11 15.07
12 15.07
13 15.07
14 15.07
15 15.07
16 15.07
17 15.07
18 15.07
19 15.07
20 15.07
21 15.07
22 15.07
23 15.07
00 16.07
01 16.07
02 16.07
03 16.07
04 16.07
05 16.07
06 16.07
07 16.07
08 16.07
09 16.07
10 16.07
11 16.07
12 16.07
13 16.07
14 16.07
15 16.07
16 16.07
17 16.07
18 16.07
19 16.07
20 16.07
22 16.07
23 16.07
00 17.07
01 17.07
02 17.07
03 17.07
04 17.07
06 17.07
07 17.07
08 17.07
09 17.07
10 17.07
11 17.07
12 17.07
13 17.07
Ветер
(напр.,м/с)
Видим. Явления Облачность Т
(С)
Тd
(С)
f
(%)
Тe
(С)
Тes
(С)
Комфортность P
(гПа)
Po
(гПа)
Тmin
(С)
Tmax
(С)
R
(мм)
R24
(мм)
S
(см)
З 1 н/о н/о +4.8 +1.7 80 +4 +4 тепло 1021.3 957.3
З 2 н/о н/о +5.8 +1.8 75 +4 +4 тепло 1021.3 957.5
штиль 0 10 км 10/10 900 м
[Sc]
+6.3 +0.9 68 +6 +6 прохладно 1021.2 957.5
ЮЗ 2 н/о н/о +7.0 +1.0 66 +5 +5 прохладно 1021.1 957.5
З 2 н/о н/о +8.5 +1.1 60 +7 +7 по сезону 1019.8 956.7
штиль 0 10 км 3/3 900 м
[Sc]
+9.0 +1.2 58 +9 +14 холодно 1019.3 956.3
З 2 н/о н/о +9.7 +1.1 55 +8 +8 очень холодно 1018.6 955.8
СЗ 2 н/о н/о +9.6 +1.3 56 +9 +9 холодно 1018.6 955.9
штиль 0 10 км ясно +9.0 +1.1 58 +9 +9 прохладно 1018.9 956.0
штиль 0 н/о н/о +5.9 +1.7 74 +5 +5 очень холодно 1019.4 955.8
штиль 0 н/о н/о +3.0 +1.1 87 +2 +2 очень холодно 1021.1 956.7
штиль 0 10 км ясно +2.9 +1.6 91 +2 +2 холодно 1022.1 957.6 +10.2
С 1 н/о н/о +2.5 +1.3 92 +2 +2 холодно 1022.5 957.9
штиль 0 н/о н/о +1.4 +1.0 97 0 0 холодно 1023.0 958.1
штиль 0 10 км ясно +1.9 +1.7 99 +1 +1 холодно 1022.9 958.1
штиль 0 н/о н/о +0.7 +0.6 99 -1 -1 холодно 1023.4 958.3
Ю 1 н/о н/о +0.5 +0.5 100 -0 -0 прохладно 1023.7 958.6
штиль 0 8000 м мгла 5/0
[Ci fib]
+0.2 +0.2 100 -1 -1 холодно 1024.1 958.9
штиль 0 н/о н/о +0.3 +0.3 100 -1 -1 холодно 1024.1 958.9
штиль 0 н/о н/о +0.1 +0.1 100 -1 -1 прохладно 1024.2 959.0
штиль 0 н/о н/о -1.0 -1.0 100 -2 -2 холодно 1024.8 959.3
штиль 0 н/о н/о -0.2 -0.2 100 -2 -2 холодно 1025.0 959.6
штиль 0 н/о н/о +0.6 +0.6 100 -1 -1 прохладно 1025.0 959.8
штиль 0 5000 м дымка 9/0
[Ac trans]
+1.0 +1.0 100 -0 -0 прохладно 1025.6 960.4 -1.0
штиль 0 н/о н/о +2.6 +2.5 99 +1 +1 по сезону 1025.8 961.0
З 1 н/о н/о +5.3 +2.5 82 +4 +4 по сезону 1025.7 961.6
З 1 8000 м мгла ясно +7.0 +2.0 70 +7 +14 по сезону 1025.4 961.6
ЮЗ 1 н/о н/о +9.4 +1.8 59 +9 +9 по сезону 1024.1 961.0
ЮЗ 2 н/о н/о +11.5 +2.0 52 +11 +11 тепло 1023.2 960.5
Ю 1 8000 м мгла ясно +11.9 +1.4 49 +12 +19 прохладно 1022.5 960.0
Ю 2 н/о н/о +13.2 +1.3 44 +13 +13 по сезону 1021.8 959.6
Ю 2 н/о н/о +13.2 +1.0 43 +13 +13 по сезону 1021.9 959.6
Ю 1 8000 м мгла ясно +12.2 +1.5 48 +13 +13 по сезону 1022.2 959.7
штиль 0 н/о н/о +8.0 +1.5 63 +8 +8 прохладно 1023.5 960.1
Ю 1 н/о н/о +5.0 +1.7 79 +5 +5 холодно 1024.6 960.5
штиль 0 10 км ясно +3.6 +1.8 88 +3 +3 холодно 1025.0 960.5 +13.5
СВ 1 н/о н/о +2.7 +2.0 95 +2 +2 холодно 1025.1 960.4
С 1 н/о н/о +2.2 +1.7 96 +2 +2 прохладно 1025.3 960.5
штиль 0 10 км ясно +1.5 +1.2 98 0 0 холодно 1025.1 960.0
штиль 0 н/о н/о +1.4 +1.1 98 0 0 холодно 1024.8 959.9
ЮВ 1 н/о н/о +0.9 +0.7 99 0 0 прохладно 1024.4 959.3
штиль 0 10 км ясно +0.4 +0.2 99 -1 -1 холодно 1024.0 958.8
штиль 0 н/о н/о -0.2 -0.3 99 -2 -2 холодно 1023.7 958.4
штиль 0 н/о н/о -0.3 -0.3 100 -2 -2 прохладно 1023.0 957.7
штиль 0 10 км ясно -0.5 -0.5 100 -2 -2 холодно 1023.1 957.7
СВ 1 н/о н/о -1.1 -1.1 100 -2 -2 холодно 1023.5 958.0
СВ 1 н/о н/о -0.8 -0.8 100 -2 -2 прохладно 1023.8 958.3
штиль 0 10 км ясно -1.4 -1.4 100 -3 -3 холодно 1024.3 958.7 -1.5
штиль 0 н/о н/о +0.6 +0.6 100 -1 -1 прохладно 1024.3 959.1
З 1 н/о н/о +7.3 +2.3 71 +8 +8 тепло 1023.3 959.7
штиль 0 9000 м мгла ясно +10.3 +2.0 56 +10 +17 по сезону 1022.7 959.8
З 2 н/о н/о +12.5 +0.5 44 +12 +12 тепло 1021.8 959.4
СЗ 2 н/о н/о +15.9 -2.6 28 +16 +16 тепло 1020.5 958.9
ЮЗ 2 10 км ясно +16.8 -1.6 28 +17 +24 тепло 1020.1 958.7
Ю 4 н/о н/о +17.2 -0.9 29 +17 +17 тепло 1020.0 958.7
ЮЗ 3 н/о н/о +16.9 +0.6 33 +17 +17 тепло 1020.6 959.2
штиль 0 10 км ясно +15.2 +1.0 38 +15 +16 тепло 1021.6 959.8
Ю 1 н/о н/о +10.7 +1.4 53 +11 +11 по сезону 1023.5 960.6
ЮВ 1 н/о н/о +8.1 +2.7 69 +8 +8 прохладно 1024.8 961.3
штиль 0 10 км ясно +7.4 +3.0 74 +7 +7 по сезону 1025.2 961.5 +17.3
С 1 н/о н/о +4.8 +2.4 84 +5 +5 прохладно 1025.7 961.4
СВ 1 н/о н/о +3.8 +2.2 89 +4 +4 прохладно 1026.3 961.7
штиль 0 10 км ясно +2.9 +2.1 94 +2 +2 прохладно 1026.8 962.0
штиль 0 н/о н/о +2.1 +1.6 96 +1 +1 прохладно 1026.9 961.9
штиль 0 н/о н/о +1.5 +1.3 99 0 0 прохладно 1027.2 962.1
штиль 0 10 км ясно +1.3 +1.3 100 -0 -0 прохладно 1027.1 961.9
штиль 0 н/о н/о +0.6 +0.6 100 -1 -1 прохладно 1027.6 962.3
СВ 1 н/о н/о +0.1 +0.1 100 -1 -1 прохладно 1028.0 962.5
штиль 0 10 км ясно 0.0 0.0 100 -1 -1 холодно 1028.0 962.4
штиль 0 н/о н/о -0.6 -0.6 100 -2 -2 прохладно 1028.7 963.0
штиль 0 н/о н/о -1.0 -1.0 100 -2 -2 прохладно 1028.9 963.1
штиль 0 5000 м ясно -1.1 -1.1 100 -3 -2 холодно 1029.3 963.4
штиль 0 н/о н/о +0.2 +0.2 100 -1 -1 прохладно 1029.0 963.4
С 1 н/о н/о +7.0 +2.4 73 +6 +6 тепло 1027.5 963.6
штиль 0 10 км ясно +9.3 +2.0 60 +9 +16 по сезону 1026.8 963.4
СВ 1 н/о н/о +12.1 +1.7 49 +12 +12 тепло 1025.5 962.8
ЮЗ 1 н/о н/о +14.6 +1.5 41 +15 +15 тепло 1023.9 961.9
Ю 1 10 км ясно +16.0 +1.1 36 +17 +24 тепло 1023.3 961.5
ЮЗ 3 н/о н/о +17.0 +1.3 35 +17 +17 тепло 1022.3 960.8
ЮЗ 3 н/о н/о +16.7 +2.3 38 +17 +17 тепло 1022.2 960.6
ЮЗ 1 10 км ясно +15.6 +1.7 39 +17 +18 тепло 1022.4 960.6
штиль 0 н/о н/о +9.0 +3.9 70 +8 +8 прохладно 1023.9 960.6
штиль 0 н/о н/о +6.3 +3.6 83 +5 +5 холодно 1024.6 960.8
штиль 0 9000 м мгла ясно +5.2 +3.6 89 +4 +4 прохладно 1024.6 960.5 +17.9
штиль 0 н/о н/о +4.2 +3.3 94 +3 +3 прохладно 1024.3 960.0
штиль 0 н/о н/о +3.4 +2.7 95 +2 +2 прохладно 1024.3 959.7
штиль 0 8000 м мгла ясно +3.0 +2.6 97 +2 +2 прохладно 1024.6 960.0
штиль 0 н/о н/о +2.1 +1.8 98 +1 +1 прохладно 1024.9 960.0
штиль 0 н/о н/о +1.9 +1.8 99 +1 +1 прохладно 1024.8 959.9
штиль 0 н/о н/о +1.3 +1.2 99 -0 -0 прохладно 1024.8 959.8
штиль 0 н/о н/о +0.9 +0.9 100 -1 -1 прохладно 1024.9 959.8
штиль 0 н/о н/о +0.2 +0.2 100 -1 -1 прохладно 1024.6 959.3
штиль 0 9000 м мгла ясно +0.2 +0.2 100 -1 -1 холодно 1024.5 959.2
штиль 0 н/о н/о -0.6 -0.6 100 -2 -2 прохладно 1024.7 959.2
С 1 н/о н/о -0.9 -0.9 100 -2 -2 прохладно 1025.4 959.8
штиль 0 9000 м мгла 4/0
[Ci fib]
-1.1 -1.1 100 -3 -2 холодно 1025.4 959.8 -1.2
штиль 0 н/о н/о +1.1 +1.1 100 -0 -0 по сезону 1025.6 960.5
Ю 1 н/о н/о +9.4 +1.9 59 +10 +10 тепло 1024.0 960.8
штиль 0 10 км ясно +12.8 +0.8 44 +13 +20 тепло 1023.3 960.9
З 2 н/о н/о +14.4 +1.2 41 +14 +14 тепло 1022.4 960.4
ЮЗ 3 н/о н/о +15.9 -0.6 32 +16 +16 тепло 1021.5 959.9
штиль 0 10 км ясно +16.8 -0.8 30 +17 +25 тепло 1020.9 959.4
ЮЗ 2 н/о н/о +17.4 +1.7 35 +18 +18 тепло 1020.0 958.8
ЮЗ 1 н/о н/о +17.4 0.0 31 +18 +18 тепло 1020.1 958.8
штиль 0 10 км ясно +16.2 +0.9 35 +16 +17 тепло 1020.5 959.0
штиль 0 н/о н/о +9.2 +2.2 62 +9 +9 по сезону 1022.3 959.2
штиль 0 н/о н/о +6.3 +2.1 74 +6 +6 прохладно 1023.1 959.3
штиль 0 10 км ясно +5.3 +2.1 80 +4 +4 прохладно 1023.4 959.4 +18.2
штиль 0 н/о н/о +4.3 +2.0 85 +3 +3 прохладно 1023.7 959.4
штиль 0 н/о н/о +3.2 +1.6 89 +2 +2 прохладно 1023.9 959.4
штиль 0 10 км ясно +3.3 +1.8 90 +2 +2 прохладно 1024.5 960.0
С 1 н/о н/о +2.1 +1.4 95 +2 +2 прохладно 1024.6 959.8
штиль 0 н/о н/о +1.5 +1.0 96 0 0 прохладно 1024.3 959.4
штиль 0 10 км ясно +1.3 +1.0 98 -0 -0 прохладно 1024.2 959.1
штиль 0 н/о н/о +0.9 +0.7 99 -1 -1 прохладно 1023.9 958.8
штиль 0 н/о н/о +0.5 +0.5 100 -1 -1 прохладно 1023.2 958.1
штиль 0 10 км ясно 0.0 0.0 100 -1 -1 холодно 1023.1 957.9
ЮВ 1 н/о н/о -0.2 -0.2 100 -1 -1 прохладно 1023.1 957.8
С 1 н/о н/о -0.4 -0.6 99 -1 -1 по сезону 1023.2 957.9
штиль 0 7000 м дымка 1/0
[Ci fib]
-0.8 -1.1 98 -2 -2 холодно 1023.6 958.2 -0.8
В 1 н/о н/о +1.6 +1.2 97 +1 +1 по сезону 1023.1 958.2
В 1 н/о н/о +9.4 +1.6 58 +10 +10 тепло 1021.3 958.3
З 1 10 км 6/0
[Ci fib]
+11.8 +1.8 50 +13 +19 тепло 1021.0 958.5
З 1 н/о н/о +15.3 +1.2 38 +16 +16 тепло 1020.1 958.4
С 1 н/о н/о +16.9 -0.8 30 +18 +18 тепло 1018.7 957.4
ЮЗ 1 10 км 8/0
[Ci fib]
+18.3 -1.3 26 +19 +26 тепло 1018.4 957.4
Ю 1 н/о н/о +17.2 +1.4 34 +18 +18 тепло 1019.2 957.9
ЮЗ 3 н/о н/о +17.3 -0.3 30 +17 +17 тепло 1018.6 957.4
Ю 1 10 км 8/0
[Ci fib]
+16.1 +0.2 34 +18 +18 тепло 1019.2 957.7
ЮВ 1 н/о н/о +11.1 +0.7 49 +12 +12 по сезону 1020.8 958.2
штиль 0 н/о н/о +7.2 +1.0 65 +7 +7 прохладно 1021.9 958.4
штиль 0 10 км 3/0
[Ci fib]
+5.6 +1.4 74 +5 +5 по сезону 1023.9 959.9 +19.2
штиль 0 н/о н/о +5.1 +1.1 75 +4 +4 по сезону 1024.1 960.0
СВ 1 н/о н/о +3.9 +0.8 80 +4 +4 по сезону 1024.5 960.0
штиль 0 10 км ясно +2.6 +0.4 85 +2 +2 прохладно 1024.4 959.6
В 1 н/о н/о +2.4 +0.8 89 +2 +2 по сезону 1025.0 960.2
штиль 0 н/о н/о +3.4 +1.3 86 +2 +2 по сезону 1024.5 960.0
штиль 0 н/о н/о +4.9 +2.0 81 +4 +4 по сезону 1023.4 959.3
Ю 2 н/о н/о +5.9 +1.7 74 +4 +4 по сезону 1024.0 960.0
В 1 н/о н/о +5.8 +2.0 77 +5 +5 тепло 1024.3 960.3
штиль 0 10 км 8/0
[Ac trans]
+5.9 +2.0 76 +5 +5 по сезону 1024.1 960.1
штиль 0 н/о н/о +5.5 +1.9 78 +5 +5 по сезону 1025.3 961.1
С 1 н/о н/о +6.2 +2.1 75 +6 +6 тепло 1025.2 961.2
штиль 0 10 км 6/0
[Ac trans]
+5.9 +1.8 75 +5 +5 по сезону 1025.7 961.7 +2.3
Ю 1 н/о н/о +8.4 +2.2 65 +8 +8 тепло 1024.5 961.1
З 1 н/о н/о +10.0 +3.3 63 +10 +10 тепло 1023.4 960.4
СЗ 3 10 км 3/0
[Ac trans]
+12.5 +2.7 51 +12 +16 тепло 1023.4 960.9
З 2 н/о н/о +17.1 +1.9 36 +18 +18 тепло 1020.5 959.2
С 1 н/о н/о +18.5 +0.5 30 +20 +20 тепло 1019.8 958.7
ЮВ 1 10 км ясно +20.6 +0.6 26 +22 +30 комфорт 1018.9 958.3
ЮЗ 2 н/о н/о +21.3 +1.3 27 +21 +21 комфорт 1019.0 958.6
ЮЗ 2 н/о н/о +20.5 +3.3 32 +22 +22 комфорт 1018.9 958.3
штиль 0 н/о н/о +12.6 +4.0 56 +12 +12 по сезону 1020.3 958.0
В 1 н/о н/о +9.3 +3.5 67 +10 +10 по сезону 1020.6 957.6
В 1 10 км ясно +8.6 +3.5 70 +9 +9 тепло 1020.6 957.4 +21.6
штиль 0 н/о н/о +7.0 +3.1 76 +6 +6 по сезону 1020.4 956.9
С 1 н/о н/о +6.0 +2.9 80 +6 +6 по сезону 1020.8 957.1
штиль 0 10 км ясно +5.2 +2.6 83 +4 +4 по сезону 1021.0 957.1
штиль 0 н/о н/о +4.8 +3.0 88 +4 +4 по сезону 1021.4 957.4
штиль 0 10 км ясно +4.2 +2.0 86 +3 +3 по сезону 1021.3 957.1
штиль 0 н/о н/о +3.2 +1.7 90 +2 +2 по сезону 1020.9 956.5
штиль 0 н/о н/о +2.6 +1.4 92 +1 +1 по сезону 1020.5 956.0
штиль 0 10 км ясно +4.2 +2.0 86 +3 +3 по сезону 1021.3 957.1
штиль 0 н/о н/о +2.6 +0.9 89 +1 +1 по сезону 1020.8 956.3
штиль 0 н/о н/о +2.2 +1.0 92 +1 +1 по сезону 1020.2 955.7
штиль 0 10 км 5/0
[Ci fib]
+2.6 +0.7 87 +2 +2 по сезону 1020.3 955.8 +2.2
Ю 2 н/о н/о +5.8 +1.0 71 +4 +4 по сезону 1019.9 956.3
Местоположение метеостанции Сантьяго (Чили): широта -33.43 долгота -70.68 высота над уровнем моря 520 м.
В архиве по умолчанию представлена погода в Сантьяго за последнюю неделю. Архивные данные за месяц целиком и за предыдущие месяцы, начиная с января 2011 года, Вы можете получить, выбрав интересующий диапазон дат из раскрывающегося списка и нажав кнопку "Найти!".
*Определитесь, кто Вы:
Внимание! Время в таблицах - всемирное. Для получения местного времени необходимо прибавить поправку, которая равна -4 ч.
Некоторые строки с данными для отдельных станций могут быть выделены курсивом. Это означает, что фактические данные отсутствуют по различным причинам, а приведенные значения являются расчетными модельными данными для данного пункта наблюдений.
Смотрите также архив погоды в соседних городах и на ближайших метеорологических станциях:
Партнеры нашего сайта:      
Пояснения к столбцам:
  • Ветер - указаны скорость ветра в м/с - средняя за 10 мин, порывы в срок и между сроками (в фигурных скобках) и направление, откуда дует ветер: С - северный,
  • СВ - северо-восточный, В - восточный, ЮВ - юго-восточный, Ю - южный, ЮЗ - юго-западный, З - западный, СЗ - северо-западный.
  • Видимость - горизонтальная дальность видимости в метрах или километрах. При видимости от 1 до 10 км при отсутствии осадков обычно наблюдается дымка, при ухудшении видимости до 1 км и менее - туман. В сухую погоду видимость может ухудшаться дымом, пылью или мглою.
  • Явления - указаны атмосферные явления, наблюдавшиеся в срок или в последний час перед сроком; фигурными скобками обозначены явления, наблюдавшиеся между сроками (за 1-3 часа до срока); квадратными скобками обозначены град или гололедные отложения с указанием их диаметра в мм.
  • Облачность - указаны через наклонную черту общая и нижняя облачность в баллах и высота нижней границы облаков в метрах; квадратными скобками обозначены формы облаков: Ci - перистые, Cs - перисто-слоистые, Cc - перисто-кучевые, Ac - высококучевые, As - высокослоистые, Sc - слоисто-кучевые, Ns - слоисто-дождевые, Cu - кучевые, Cb - кучево-дождевые. Подробнее классификацию облаков см. в Атласе облаков (PDF).
  • T - Температура воздуха - температура, измеренная на высоте 2 м над землей.
  • Td - Температура точки росы - температура, при понижении до которой содержащийся в воздухе водяной пар достигнет насыщения.
  • f - Относительная влажность воздуха - влажноcть воздуха, измеренная на высоте 2 м над землей.
  • Te - Эффективная температура - температура, которую ощущает одетый по сезону человек в тени. Характеристика душности погоды. При расчете учитывается влияние влажности воздуха и скорости ветра на теплоощущения человека.
  • Tes - Эффективная температура на солнце - температура, которую ощущает человек, с поправкой на солнечный нагрев. Характеристика знойности погоды. Зависит от высоты солнца над горизонтом, облачности и скорости ветра. Ночью, в пасмурную погоду, а также при ветре 12 м/с и более поправка равна нулю.
  • P - Атмосферное давление - приведенное к уровню моря атмосферное давление.
  • Po - Атмосферное давление - измеренное на уровне метеостанции атмосферное давление.
  • Tmin - Минимальная температура - минимум температуры воздуха на высоте 2 м над землей.
  • Tmax - Максимальная температура - максимум температуры воздуха на высоте 2 м над землей.
  • R - Количество осадков - Количество выпавших осадков за период времени, мм. При наведении курсора мыши на число - период времени, за который выпало указанное количество осадков.
  • R24 - Количество осадков - Количество выпавших осадков за 24 часа, мм.
  • S - Снежный покров - Высота снежного покрова, см. При наведении курсора мыши на число - состояние снежного покрова и степень покрытия местности в баллах.